Regional Weather Roundup
Issued by NWS

Home | Current Version | Previous Version | Graphics & Text | Print | Product List | Glossary On
Versions: 1 2 3 4 5 6 7 8 9 10 11 12 13 14 15 16 17 18 19 20 21 22 23 24 25 26 27 28 29 30 31 32 33 34 35 36 37 38 39 40 41 42 43 44 45 46 47 48 49 50
000
ASUS43 KMPX 310101
RWRMN
WEATHER ROUNDUP FOR MINNESOTA
NATIONAL WEATHER SERVICE TWIN CITIES/CHANHASSEN MN
800 PM CDT SAT JUL 30 2016


NOTE: "FAIR" INDICATES FEW OR NO CLOUDS BELOW 12,000 FEET WITH NO
SIGNIFICANT WEATHER AND/OR OBSTRUCTIONS TO VISIBILITY. N/A MEANS
CURRENT SKY AND/OR WEATHER CONDITIONS ARE NOT AVAILABLE.

MNZ060>063-068>070-310200-
   Twin Cities Metro

CITY           SKY/WX    TMP DP  RH WIND       PRES   REMARKS
TWIN CITIES    PTCLDY    77  63  61 SE6       29.98R
ST PAUL        CLEAR     75  62  64 SE6       29.98R
CRYSTAL        PTCLDY    76  60  57 SE5       29.97R
BLAINE         PTCLDY    79  63  57 SE7       29.98R
LAKEVILLE      CLEAR     73  64  73 SE3       29.98S
EDEN PRAIRIE   CLEAR     76  64  66 SE7       29.97R
LAKEVILLE      CLEAR     73  64  73 SE3       29.98S
SOUTH ST PAUL  CLEAR     75  61  60 CALM      29.98R
LAKE ELMO      FAIR      73  64  73 CALM      30.00R
$$
MNZ001>005-007-008-013>017-022>024-027-028-310200-
   Northwest Minnesota

CITY           SKY/WX    TMP DP  RH WIND       PRES   REMARKS
BEMIDJI        CLEAR     74  59  59 SE8       29.97S
HALLOCK        MOCLDY    79  64  61 S12       29.87S
ROSEAU         PTCLDY    75  66  73 S8        29.92S
WARROAD        PTCLDY    73  66  78 S6        29.93F
THIEF RVR FALL CLOUDY    74  63  68 S6        29.94S
CROOKSTON      CLOUDY    79  61  53 S9        29.91F
FOSSTON        CLEAR     73  61  64 S6        29.96S
DETROIT LAKES  CLEAR     75  59  57 S7        29.97S
MOORHEAD       CLEAR     75  59  57 SE9       29.92F
PARK RAPIDS    CLEAR     76  57  51 SE6       29.97F
MAHNOMEN       FAIR      73  58  60 SE6       29.95S
$$
MNZ006-009>011-018-025>026-310200-
   North Central Minnesota

CITY           SKY/WX    TMP DP  RH WIND       PRES   REMARKS
BAUDETTE       CLEAR     72  58  61 S8        29.95S
FLAG ISLAND    CLEAR     75  64  69 S7        29.92S
INTL FALLS     CLEAR     73  60  63 SW3       29.98S
WASKISH        CLEAR     73  63  68 CALM      29.97F
BIG FORK       CLEAR     70  63  78 CALM      29.99F
LONGVILLE      CLEAR     73  61  64 CALM      29.98S
GRAND RAPIDS   CLEAR     70  61  73 CALM      30.00F
CRANE LAKE     CLEAR     72  59  64 S1        30.00F
ORR            CLEAR     70  55  60 CALM      29.97S
COOK           CLEAR     72  57  60 CALM      30.00F
WALKER         FAIR      73  55  52 SE3       29.98S
$$
MNZ012-019>021-037-310200-
   Northeast Minnesota

CITY           SKY/WX    TMP DP  RH WIND       PRES   REMARKS
DULUTH         PTCLDY    68  61  78 E7        30.02F
ELY            CLEAR     73  52  46 CALM      30.01S
HIBBING        MOCLDY    73  54  51 VRB6      30.00S
EVELETH        CLEAR     73  57  57 S5        30.02S
DULUTH HARBOR  CLEAR     66  63  88 NE10      30.02S
TWO HARBORS    MOCLDY    70  61  73 E5        30.01S
SILVER BAY     CLEAR     66  57  72 NE5       30.02S
GRAND MARAIS     N/A     66  57  72 E8        30.03S
G MARAIS ARPRT CLEAR     63  55  77 SE5       30.08R
$$
MNZ029>031-032-039>041-046>048-054>057-064-310200-
   West Central Minnesota

CITY           SKY/WX    TMP DP  RH WIND       PRES   REMARKS
FERGUS FALLS   CLEAR     73  59  60 S7        29.95F
WHEATON        CLEAR     75  63  64 E7        29.95F
MORRIS         CLEAR     73  59  60 SE5       29.95S
ALEXANDRIA     CLEAR     75  56  51 S8        29.98F
ELBOW LAKE     FAIR      72  61  68 SE7       29.96F
WADENA         CLEAR     73  59  60 S5        29.97S
GLENWOOD       CLEAR     73  59  60 S5        29.98F
APPLETON       CLEAR     75  57  53 SE3       29.94F
BENSON         CLEAR     73  55  53 S5        29.96F
ORTONVILLE     CLEAR     75  57  53 SE6       29.93F
MADISON        CLEAR     73  59  60 E5        29.94F
WILLMAR        FAIR      75  63  64 CALM      29.98F
$$
MNZ033>034-036-042>043-049>051-058-059-310200-
   Central Minnesota

CITY           SKY/WX    TMP DP  RH WIND       PRES   REMARKS
ST CLOUD       PTCLDY    77  66  68 E7        29.97S
SAUK CENTRE    FAIR      74  60  61 S6        29.98S
PAYNESVILLE    CLEAR     73  58  59 S3        29.98F
AITKIN         CLEAR     75  59  57 E7        29.98F
PINE RIVER     PTCLDY    75  63  64 SE5       30.01S
BRAINERD       CLEAR     75  62  64 SE5       29.98S
STAPLES        CLEAR     75  57  53 SE3       29.97F
LONG PRAIRIE   FAIR      72  61  68 SE5       29.98S
LITTLE FALLS   CLEAR     73  61  64 SE3       29.98S
LITCHFIELD     CLEAR     75  61  60 CALM      29.98S
BUFFALO        CLEAR     74  62  66 CALM      29.98F
MAPLE LAKE     PTCLDY    77  66  69 SE3       29.98S
HUTCHINSON     PTCLDY    76  64  64 CALM      29.98F
$$
MNZ037-044-045-052-053-310200-
   East Central Minnesota

CITY           SKY/WX    TMP DP  RH WIND       PRES   REMARKS
PRINCETON      CLEAR     77  64  65 E3        29.98S
MORA           CLEAR     73  61  64 CALM      30.00F
CAMBRIDGE      PTCLDY    79  63  57 CALM      29.97S
RUSH CITY      LGT RAIN  73  65  76 CALM      29.99S
MOOSE LAKE     CLEAR     70  64  83 CALM      29.99S
HINCKLEY       MOCLDY    73  63  68 CALM      29.99F
CLOQUET        PTCLDY    68  59  73 NE3       30.02S
MCGREGOR       PTCLDY    72  64  78 E3        30.00F
$$
MNZ071>073-080-081-089-090-097-098-310200-
   Southwest Minnesota

CITY           SKY/WX    TMP DP  RH WIND       PRES   REMARKS
MONTEVIDEO     CLEAR     75  57  53 S5        29.97F
GRANITE FALLS  CLEAR     78  62  58 E3        29.97F
CANBY          CLEAR     76  61  59 SE5       29.95F
MARSHALL       CLEAR     76  59  55 SE7       29.95F
REDWOOD FALLS  CLEAR     78  56  46 S3        29.96F
OLIVIA         CLEAR     73  59  60 CALM      29.96F
PIPESTONE      CLEAR     75  59  57 S5        29.97F
WINDOM         CLEAR     75  61  60 SE5       29.97F
WORTHINGTON    CLEAR     75  61  61 S6        29.98S
JACKSON        CLEAR     73  61  64 SE6       29.99S
TRACY          CLEAR     76  63  63 SE3       29.96F
SLAYTON        CLEAR     75  62  64 CALM      29.98F
$$
MNZ065>067-074>077-082>085-091>093-310200-
   South Central Minnesota

CITY           SKY/WX    TMP DP  RH WIND       PRES   REMARKS
MANKATO        CLEAR     75  63  64 SE6       29.98R
NEW ULM        CLEAR     75  61  60 CALM      29.96F
ST JAMES       CLEAR     72  61  68 CALM      29.98S HAZE
FAIRMONT       CLEAR     75  64  69 SE5       29.97S
GLENCOE        MOCLDY    79  69  71 E6        29.97S
FARIBAULT      CLEAR     75  64  69 SE5       29.99S
OWATONNA       PTCLDY    73  64  73 E5        29.99S
WASECA         PTCLDY    72  64  78 E5        30.00R
ALBERT LEA     CLOUDY    73  66  78 SE7       29.99S
$$
MNZ078>079-086>088-094>096-310200-
   Southeast Minnesota

CITY           SKY/WX    TMP DP  RH WIND       PRES   REMARKS
ROCHESTER      MOCLDY    73  67  81 E3        30.01R
RED WING       CLEAR     75  64  69 CALM      29.97S
STANTON        CLEAR     75  68  78 CALM      29.97S
DODGE CENTER   CLOUDY    72  64  78 S5        30.00F
WINONA         CLEAR     75  63  64 E3        29.99R
AUSTIN         MOCLDY    72  64  78 CALM      29.99F
PRESTON        CLOUDY    73  63  70 SE5       30.01S
$$
ABBREVIATIONS USED IN REMARKS
   TC - TEMPERATURES IN CELSIUS
  WCI - WIND CHILL INDEX
   HX - HEAT INDEX
  VSB - VISIBILITY
$$



USA.gov is the U.S. government's official web portal to all federal, state and local government web resources and services.